Wind_Speed
38 38 38 38 38 38 39 39 40 41 41 42 43 44 45 45 46 47 47 48 48 49 50 50 51 54 54 52 53 55 55 54 55 56 58 59 60 61 62 62 63 64 65 66 67 68 69 70 70 71 72 73 73 74 75 76 77 78 79 80 82 83 85 87 88 90 92 93 95 97 99 101 103 105 107 110 112 114 116 117 119 121 123 125 127 129
36 36 36 36 37 37 38 39 40 41 42 42 43 43 44 44 45 46 46 47 47 47 49 49 50 52 52 50 51 52 52 51 52 54 56 57 57 57 58 59 59 60 61 62 63 64 65 66 67 68 68 69 70 71 72 73 75 76 77 78 80 82 83 85 86 88 90 92 94 95 97 99 101 103 105 107 109 111 112 114 116 117 119 121 123 124
36 36 36 36 37 38 39 40 40 41 42 42 42 42 43 43 43 44 44 44 44 44 45 45 46 50 49 46 46 47 47 47 49 51 52 52 52 53 54 55 56 57 58 60 60 61 62 63 64 65 65 66 67 68 70 71 72 73 75 77 78 80 81 83 84 86 88 90 92 94 96 98 100 102 104 106 108 110 111 113 115 117 118 119 121 122
35 35 36 37 38 38 39 40 40 41 41 41 41 41 41 41 41 41 42 42 41 41 42 42 44 47 45 42 42 43 45 46 47 48 49 49 49 50 51 52 53 54 55 57 57 58 59 60 60 61 61 62 63 64 65 66 68 69 70 72 73 75 76 78 79 81 83 85 87 89 91 94 96 98 100 103 105 107 110 111 114 115 117 119 120 121
35 35 36 37 38 39 39 40 40 40 40 40 40 39 39 40 39 39 40 40 40 40 40 39 42 44 43 39 38 39 41 44 45 45 45 45 45 45 46 47 48 50 51 52 53 53 53 54 54 55 55 56 57 58 59 60 62 63 65 66 67 68 70 71 73 75 77 79 81 83 85 88 90 92 95 97 100 102 105 107 110 112 114 117 118 120
35 36 36 37 38 38 38 39 39 39 39 39 39 39 38 38 38 38 38 39 39 39 39 38 39 42 42 39 35 35 37 40 41 41 41 41 41 42 42 43 45 46 47 47 47 48 49 50 49 50 50 51 52 53 55 56 58 59 60 62 63 64 65 67 69 71 73 74 77 79 81 83 86 88 91 93 95 98 101 103 106 108 110 112 114 116
35 36 36 37 37 37 37 38 38 38 38 38 38 38 37 37 37 37 37 38 38 38 39 37 36 38 42 39 33 31 32 35 36 36 36 37 39 41 42 43 45 45 46 45 45 45 47 48 48 48 48 49 50 51 53 54 55 56 58 59 60 61 63 64 66 68 70 72 74 75 77 79 82 84 86 88 91 93 96 99 101 104 106 108 110 112
35 36 36 36 37 37 37 37 37 37 37 37 37 37 37 36 36 37 37 37 38 38 39 38 35 35 40 40 34 29 29 30 31 31 33 35 37 41 43 43 44 46 47 48 47 47 47 48 47 47 47 49 50 51 52 53 54 56 57 58 60 61 62 64 66 67 69 71 72 73 75 76 78 79 81 84 86 88 91 93 96 99 101 104 105 107
35 36 36 36 36 37 37 37 37 37 37 37 37 37 37 37 37 37 38 38 38 39 39 39 37 35 38 40 34 31 31 30 31 32 34 37 39 42 43 43 44 46 48 49 50 49 49 48 48 48 49 50 52 53 53 54 55 56 58 59 60 62 63 65 66 68 69 70 72 73 74 75 76 78 79 81 82 84 86 88 91 93 95 97 99 101
36 36 36 37 37 37 37 37 37 38 38 38 37 37 37 38 38 38 39 38 39 40 40 40 39 37 39 41 36 33 34 32 33 35 38 41 42 44 45 46 46 48 49 50 51 51 51 50 50 51 52 53 54 55 55 56 57 59 60 61 63 64 65 67 68 69 70 71 72 73 74 75 77 78 79 80 81 82 84 85 87 89 90 91 93 94
36 37 37 37 37 38 38 38 38 38 39 39 38 38 38 39 39 39 40 39 39 41 42 42 42 40 42 43 39 36 35 34 35 38 41 44 45 46 47 48 50 51 52 53 53 53 53 52 53 54 55 57 57 57 58 59 60 61 63 64 65 67 68 69 70 71 72 74 75 75 76 77 78 79 80 81 82 82 83 84 85 86 87 87 88 89
37 37 38 38 38 38 39 39 39 40 40 41 40 40 40 39 40 40 41 41 41 42 43 44 45 45 45 46 44 41 38 37 39 42 44 46 47 48 49 52 54 55 55 55 55 54 54 55 56 57 58 59 60 60 61 62 63 64 65 67 68 69 71 72 73 74 75 76 77 78 79 80 81 82 83 84 84 84 84 84 84 84 84 85 85 86
38 38 39 40 40 40 40 41 41 41 42 43 43 43 42 42 41 41 43 43 43 44 45 46 47 48 50 51 49 46 40 40 44 46 46 48 50 50 53 55 57 58 57 57 57 56 57 58 59 60 61 62 62 63 63 64 65 67 68 69 70 72 73 75 76 77 78 79 80 81 82 83 84 85 85 86 86 86 85 84 83 83 83 84 84 85
39 40 41 41 42 43 43 43 43 43 45 46 46 46 46 45 43 43 44 44 45 45 46 49 50 51 54 56 56 51 44 44 47 48 48 49 50 52 55 58 59 60 60 60 59 59 59 60 62 63 63 64 64 65 65 66 67 68 69 71 72 74 76 77 78 80 81 82 83 83 84 85 86 87 88 88 88 88 86 84 83 83 83 84 85 85
40 41 42 43 44 45 45 46 45 45 47 48 49 49 49 49 47 45 46 46 47 46 47 50 52 54 58 61 63 58 50 49 50 50 50 50 51 54 57 60 61 62 63 63 62 62 63 63 64 65 66 66 66 66 67 68 69 70 71 73 74 76 78 79 81 82 83 84 84 85 86 87 88 89 90 90 90 89 87 85 83 83 83 84 85 86
43 42 43 45 46 47 48 49 49 48 49 51 52 53 53 53 52 50 48 49 49 46 46 50 52 56 62 67 70 64 55 54 53 51 53 52 52 56 59 61 62 63 64 64 64 65 65 66 67 67 68 68 68 68 68 70 71 72 74 75 76 78 80 81 83 84 84 85 86 87 88 89 90 91 92 92 91 90 87 85 83 83 83 84 85 86
45 44 44 45 47 48 48 50 51 50 50 52 54 55 55 55 55 54 51 51 52 48 45 47 50 54 62 72 77 71 62 59 55 54 55 54 55 57 61 63 63 64 65 65 65 65 66 67 67 68 68 68 69 69 70 71 73 74 75 77 78 80 82 83 84 85 86 87 88 89 90 91 92 93 93 93 92 90 88 85 84 84 84 85 85 86
44 45 45 45 46 48 48 49 51 51 51 52 54 56 56 55 56 56 54 53 54 50 45 45 47 50 59 73 81 77 69 63 58 57 58 57 57 59 62 63 63 63 64 64 65 66 66 66 67 68 68 69 69 70 71 73 74 76 77 78 80 82 83 85 86 86 87 88 89 90 91 92 93 94 94 94 92 90 88 86 85 84 85 85 86 86
43 44 46 47 47 48 49 48 50 51 52 52 53 55 56 55 54 54 54 54 54 50 45 43 42 45 56 71 80 80 72 64 60 59 58 56 57 60 63 63 62 62 63 64 64 65 65 66 66 67 68 69 70 71 73 74 76 77 79 81 82 84 85 86 87 87 88 89 90 91 92 94 95 95 95 94 92 90 88 86 86 86 86 87 87 88
43 43 45 47 48 49 50 49 49 51 52 53 53 55 56 55 55 53 52 53 53 49 45 40 35 39 53 68 78 79 72 66 62 58 56 55 57 60 63 62 62 62 63 63 63 64 65 65 66 67 69 70 71 72 74 76 77 79 81 83 85 86 87 87 88 89 90 90 92 93 94 95 96 96 95 93 91 89 88 87 87 88 88 88 88 89
45 45 45 47 48 49 51 50 49 50 52 53 54 55 56 56 56 53 51 53 53 49 44 35 26 33 54 68 73 73 70 67 64 58 55 55 57 60 62 62 63 63 63 63 63 64 64 65 66 68 70 71 72 74 76 78 80 82 84 85 87 87 88 89 89 90 91 92 93 95 96 97 97 96 94 92 90 89 88 88 89 89 89 89 90 91
46 47 47 48 49 50 51 51 51 51 51 52 54 55 56 57 58 55 52 53 54 51 48 37 23 32 56 67 66 67 68 67 64 59 56 57 60 61 62 63 64 64 64 64 64 65 65 66 68 69 71 73 74 76 78 80 82 84 86 87 88 89 89 90 91 92 93 94 95 96 97 98 97 95 93 91 90 89 90 90 90 90 90 90 91 92
45 46 46 48 49 51 52 52 51 51 51 52 54 55 55 57 58 58 54 53 52 52 52 44 31 37 56 63 63 65 67 65 62 59 59 60 62 63 63 64 66 66 66 66 66 66 66 68 70 71 73 75 76 79 81 83 85 86 88 89 89 89 90 92 93 93 94 95 96 97 98 97 95 93 91 90 90 90 91 91 91 90 90 91 92 93
42 43 44 44 46 49 52 53 53 52 52 53 55 56 57 58 57 57 56 54 51 51 53 49 41 42 51 58 61 64 64 62 61 60 61 62 63 64 65 66 67 68 68 68 68 68 69 70 72 74 76 78 79 82 84 85 87 88 89 90 91 91 92 93 94 94 95 96 98 98 97 96 93 92 91 91 91 91 92 91 91 91 91 92 93 94
40 42 41 40 41 44 48 50 51 51 51 53 56 58 59 60 59 58 57 55 51 49 51 52 48 44 48 56 61 63 62 60 60 61 63 64 64 65 67 68 69 69 69 70 70 70 71 73 75 77 79 81 82 84 86 87 89 90 91 92 92 93 93 94 95 96 97 98 99 98 96 94 92 91 91 91 91 92 91 91 91 91 92 93 94 95
42 44 43 40 40 42 45 46 48 48 48 50 54 57 60 61 61 61 60 59 54 47 46 53 56 47 46 58 64 62 60 59 60 62 64 65 65 66 68 70 71 71 71 72 73 73 75 77 79 81 82 84 85 87 88 89 91 92 93 94 94 94 94 95 96 97 98 99 99 97 95 93 92 91 91 92 91 91 91 91 91 92 93 94 95 95
44 46 46 43 42 44 46 47 47 47 48 50 53 57 60 62 62 62 63 63 61 50 42 51 59 49 46 59 66 63 61 60 61 64 65 66 67 68 70 71 72 73 74 75 76 77 78 80 82 84 86 87 88 89 90 91 92 94 94 95 96 96 96 97 98 99 99 99 97 95 93 92 92 92 92 91 91 91 91 91 92 93 94 94 95 94
46 47 49 46 44 46 48 49 49 48 48 51 54 58 61 62 61 62 62 64 65 58 48 52 59 53 50 60 65 64 65 63 63 66 67 68 69 70 72 74 75 76 77 78 79 81 83 84 86 88 89 90 91 92 93 93 94 95 96 97 97 98 98 99 100 100 99 97 95 93 92 92 92 92 92 91 91 91 91 92 92 93 94 94 93 92
50 49 51 49 46 48 50 51 52 50 50 52 56 60 64 63 62 62 63 64 67 65 59 58 60 58 59 65 64 64 68 68 67 69 71 71 71 73 75 77 78 80 80 81 83 85 86 88 89 91 92 93 94 94 95 95 96 96 97 98 99 100 100 101 101 100 98 96 94 93 92 92 92 92 91 91 91 92 92 92 93 93 93 92 91 89
54 52 53 52 48 48 51 53 53 53 52 52 56 62 67 66 65 65 65 66 70 69 67 67 65 61 65 70 67 66 71 73 73 74 75 75 75 76 77 79 81 82 83 84 87 88 90 91 93 94 95 96 96 96 96 96 97 98 99 100 101 101 101 101 100 98 96 95 94 93 92 92 91 91 91 91 92 92 92 92 93 92 92 90 89 87
59 56 56 56 51 48 52 54 54 55 53 51 56 64 68 67 67 68 68 69 73 73 72 74 72 67 68 73 72 71 73 75 76 78 80 80 80 80 82 83 84 85 86 88 90 92 93 95 96 96 97 98 97 97 97 97 98 99 101 101 102 102 101 100 99 97 95 94 93 93 92 91 91 91 91 92 92 92 92 92 92 91 90 88 86 85
64 63 62 62 57 51 54 56 56 57 55 53 58 66 68 69 69 69 70 71 75 77 76 77 77 74 73 75 75 74 75 76 77 79 82 83 84 85 87 87 88 89 91 92 94 95 97 98 98 99 99 98 98 98 98 99 100 101 102 103 103 102 100 99 97 96 94 93 93 92 92 91 91 91 92 92 92 92 92 92 91 89 87 86 84 83
67 69 68 68 64 58 57 59 59 58 55 55 62 67 68 70 71 70 70 72 75 78 79 79 80 79 78 79 78 77 77 78 79 80 83 85 87 89 90 90 91 93 95 96 97 99 100 100 100 99 99 99 99 99 99 100 102 103 104 103 102 100 98 97 96 95 94 93 92 92 91 92 92 92 92 92 92 92 91 90 89 87 85 84 83 82
71 73 73 72 70 64 61 63 62 58 56 58 65 70 72 73 74 72 71 73 76 79 81 82 82 82 82 83 82 81 80 81 83 84 86 88 90 91 92 92 94 96 97 98 99 100 100 100 100 99 99 99 99 100 101 102 104 104 104 102 100 99 97 96 95 94 93 93 92 92 92 92 92 92 92 92 92 91 90 89 87 85 83 83 82 81
74 76 76 75 74 70 67 68 65 61 60 63 68 74 76 76 76 75 73 75 79 83 83 83 83 84 85 86 85 85 84 84 85 86 89 92 93 94 94 94 95 97 98 99 99 100 99 99 100 100 100 100 101 102 103 104 105 104 102 100 98 97 96 95 94 93 93 93 92 92 92 93 93 92 92 91 91 90 89 87 85 83 82 81 81 80
77 78 79 79 79 76 74 74 72 67 66 69 74 80 82 81 80 80 77 77 82 86 86 85 85 86 87 87 87 88 87 86 86 87 90 93 95 96 96 95 96 97 98 98 99 99 99 100 100 101 101 102 103 103 104 104 103 102 99 98 97 96 95 94 93 93 93 93 93 93 93 93 92 92 91 91 90 89 87 85 83 81 81 80 80 80
80 81 83 83 83 82 82 81 79 75 73 75 80 85 86 85 85 85 82 80 83 86 87 87 87 88 88 88 88 89 88 87 85 86 90 92 94 96 97 96 96 97 97 98 99 99 100 101 101 102 102 103 104 104 103 102 101 99 97 96 96 95 94 93 93 93 93 93 93 93 93 92 92 91 91 90 89 87 85 83 81 80 80 80 80 79
83 84 87 88 86 87 88 88 85 83 82 83 86 88 88 87 88 89 88 85 85 86 87 88 89 88 88 89 89 89 88 87 85 86 89 90 91 94 96 96 97 98 99 99 100 101 102 102 103 103 103 103 103 102 101 100 99 97 96 96 95 95 94 93 93 93 93 93 93 93 92 92 91 91 90 89 87 85 83 82 80 80 79 79 79 79
86 88 90 91 90 92 94 94 92 91 91 92 93 92 91 91 92 93 92 89 87 87 88 89 89 89 89 90 89 89 89 88 86 86 88 90 91 92 94 96 97 99 100 101 102 102 103 103 102 102 102 101 101 100 100 99 98 97 96 95 95 94 93 93 93 94 94 93 93 92 92 91 91 90 89 87 86 84 82 81 80 79 79 79 78 78
90 92 93 93 94 96 99 99 98 97 97 97 97 96 95 95 95 95 94 91 89 89 90 91 91 91 91 91 91 90 90 90 89 89 90 91 92 92 94 96 98 99 100 101 102 102 101 101 100 100 100 100 99 99 99 98 97 96 95 94 94 94 93 93 94 93 93 93 92 91 91 90 90 89 87 86 84 83 81 80 79 79 78 78 77 77
95 95 96 97 98 100 102 102 101 100 100 100 99 98 98 97 97 97 96 93 92 92 92 92 93 93 93 93 93 93 92 92 93 92 92 93 93 94 95 97 98 99 99 100 100 99 98 98 98 98 98 98 98 98 97 97 96 95 94 93 93 93 93 94 93 93 92 92 91 90 90 89 88 87 86 84 83 82 81 80 79 78 78 77 76 76
100 100 100 101 102 103 104 104 104 103 101 100 100 100 101 100 100 100 98 96 96 96 95 95 95 95 95 95 95 95 94 94 95 95 94 94 94 95 96 97 97 98 98 97 97 96 95 95 96 96 96 96 96 96 96 95 94 94 93 92 92 93 93 93 92 92 91 90 89 89 88 88 87 86 84 83 82 81 80 79 78 78 77 76 75 75
104 104 105 105 105 106 105 105 106 106 103 102 102 103 103 104 104 104 102 99 99 99 99 97 96 96 96 95 94 94 94 95 96 96 95 95 95 96 96 96 96 96 96 96 95 94 94 94 94 95 94 94 94 94 94 94 93 92 92 91 92 93 93 91 90 90 89 88 88 88 87 86 85 84 83 82 81 80 80 78 77 77 76 75 74 74
107 108 108 108 108 108 107 107 108 108 106 105 106 106 106 106 106 106 104 102 100 100 100 98 96 96 96 96 94 93 94 95 96 96 96 96 96 96 95 95 96 95 95 95 94 93 93 93 93 93 93 93 93 93 92 92 92 91 91 91 91 92 91 90 89 88 87 87 87 86 85 84 83 83 82 81 80 79 79 77 76 75 75 74 74 73
109 109 110 110 110 109 109 109 110 109 107 107 108 108 108 107 106 105 105 103 102 100 100 99 97 96 97 97 97 95 94 95 95 95 96 96 95 95 95 96 95 95 95 94 93 92 92 92 92 92 92 92 91 91 91 91 91 91 90 90 91 91 90 88 87 87 86 86 85 84 83 82 82 81 80 79 79 78 77 77 75 75 74 73 73 72
109 109 110 110 110 109 109 109 109 108 107 107 107 108 107 106 106 105 105 105 104 103 102 102 101 99 98 98 98 97 95 95 95 95 96 96 95 95 96 96 96 95 95 94 93 92 91 91 91 91 91 91 90 90 90 91 91 89 89 89 90 89 88 87 86 85 85 84 83 82 81 81 81 80 79 78 77 76 76 75 75 74 74 73 72 71
108 109 109 109 109 108 108 107 107 106 105 106 106 107 107 106 106 106 107 106 105 104 104 103 102 101 100 99 99 98 96 95 95 96 96 95 95 95 96 96 95 94 94 93 92 91 90 90 90 90 90 89 89 89 89 90 89 88 88 88 88 87 86 85 84 83 83 82 82 80 79 79 79 79 78 77 76 75 74 74 74 74 73 73 71 71
107 107 107 107 107 107 107 106 105 103 103 104 106 106 105 105 104 103 104 105 105 104 103 102 102 102 101 100 100 99 97 96 96 97 96 95 95 95 95 94 94 93 92 91 91 90 90 89 89 88 88 87 87 87 88 88 87 86 86 86 86 85 84 83 82 82 81 80 80 79 78 78 78 78 77 76 75 74 73 73 73 73 73 73 71 70
105 105 105 105 104 104 105 105 104 102 101 101 104 106 106 105 103 101 101 102 103 103 103 102 102 102 102 102 101 100 98 97 97 97 96 95 95 95 94 93 93 92 91 90 89 89 88 88 87 86 86 85 84 85 85 85 85 84 84 84 84 84 83 81 80 80 79 79 78 78 77 77 77 77 76 75 74 73 73 73 72 72 72 72 71 70
105 105 105 104 104 103 103 103 103 102 100 99 100 102 104 105 104 102 101 101 101 101 101 100 99 99 100 101 101 101 99 97 96 96 96 95 94 93 92 91 91 89 88 88 87 86 86 85 84 83 83 82 82 82 83 83 82 81 81 82 82 82 80 79 78 78 78 78 77 77 76 76 76 75 74 73 73 72 72 72 72 72 71 71 70 70
104 104 104 103 103 102 102 102 102 101 101 99 99 99 101 102 102 100 99 99 98 98 98 97 96 95 95 96 98 100 99 96 95 94 93 92 91 90 89 88 87 86 85 84 84 83 82 81 80 80 79 79 79 80 80 80 80 79 79 80 81 80 78 77 77 77 77 76 76 76 76 75 75 74 73 72 72 71 71 72 72 72 71 70 69 69
Wind_Direction
285 284 282 282 281 280 280 280 279 279 279 278 278 278 277 277 276 276 276 275 275 275 274 274 273 273 273 273 272 273 273 273 273 273 271 271 270 270 271 271 271 271 271 271 271 271 270 270 270 270 270 271 271 271 271 271 271 271 271 271 271 271 270 270 270 270 270 269 269 269 269 269 268 268 268 268 267 267 267 267 266 266 266 265 265 264
287 286 285 285 284 284 284 284 283 283 282 281 281 280 279 279 278 277 277 276 276 276 275 275 275 274 274 274 274 275 275 274 273 272 271 271 272 272 273 273 272 272 272 272 272 272 272 272 272 273 273 273 273 273 273 273 273 273 273 273 273 272 272 272 272 272 272 271 271 271 271 270 270 270 269 269 269 269 268 268 268 267 267 266 266 266
289 288 288 288 288 287 287 286 285 284 283 282 282 281 280 280 279 279 278 277 277 277 276 277 276 276 275 276 277 277 276 275 273 273 273 274 275 275 275 275 275 275 275 275 275 275 276 276 276 277 277 278 278 277 277 277 277 277 276 276 275 275 275 275 274 274 274 273 273 273 273 272 272 272 272 271 271 270 270 270 269 269 268 267 267 267
290 290 289 289 289 288 287 286 285 284 284 284 283 283 282 282 282 281 281 280 280 279 279 279 278 278 278 279 279 280 279 277 276 277 278 278 278 278 278 278 278 278 277 277 277 278 278 278 279 279 279 279 279 278 278 278 277 277 277 277 277 277 277 277 276 276 276 276 276 275 275 275 274 274 274 274 273 273 272 272 271 271 270 270 269 268
291 291 290 289 288 287 287 286 286 286 286 286 286 285 285 285 284 284 284 283 282 281 280 280 280 280 280 280 281 283 283 281 281 281 281 280 279 279 278 278 277 277 276 276 277 278 278 278 279 279 279 279 279 279 279 279 279 279 279 280 280 280 280 280 280 280 280 279 279 279 279 279 278 278 277 277 276 276 275 274 273 273 272 271 271 270
291 291 290 289 288 288 288 288 288 288 287 287 287 287 286 286 286 285 285 284 284 284 283 282 283 284 283 283 284 285 283 281 282 282 281 279 279 277 277 276 276 276 277 278 280 280 280 280 279 280 281 282 282 282 282 282 282 282 282 282 282 282 282 281 281 281 280 280 280 279 279 279 279 279 279 278 278 278 277 277 276 275 274 273 273 272
291 291 290 289 289 289 289 289 289 288 288 288 287 287 286 286 286 286 285 285 285 285 284 283 283 284 284 283 282 281 279 280 282 284 284 284 284 282 280 280 280 281 282 282 282 282 282 282 282 283 284 284 283 282 282 281 281 282 282 282 282 282 281 281 281 280 280 280 279 279 279 279 279 279 279 278 278 278 278 277 277 276 276 275 275 274
292 291 290 290 290 290 290 290 289 289 288 287 287 287 287 287 287 287 286 285 284 283 282 281 278 278 280 280 278 273 272 278 282 284 286 287 286 285 283 284 285 286 287 287 286 284 283 284 285 285 286 285 284 283 282 282 282 283 283 283 284 284 284 284 283 283 283 283 282 282 282 282 282 282 281 281 280 280 279 278 277 276 276 275 275 275
292 291 291 291 291 291 290 290 289 289 289 289 289 289 289 289 288 286 285 283 282 281 280 279 278 276 276 277 276 271 268 274 280 281 282 282 281 280 282 284 285 287 287 287 287 287 286 286 287 287 288 287 286 285 285 285 286 286 287 287 287 287 288 288 287 287 287 287 287 287 287 287 287 287 286 286 285 283 282 281 279 278 276 275 275 274
292 292 292 291 291 291 290 290 290 290 290 289 289 289 289 288 287 286 285 285 285 285 284 283 281 279 279 279 276 272 271 273 277 280 280 279 278 279 282 283 284 284 285 285 286 287 288 289 289 290 291 290 288 288 289 289 289 290 290 291 291 292 292 292 292 292 292 292 292 292 292 292 292 291 291 290 289 288 287 286 283 281 279 278 276 275
292 291 291 290 290 290 290 290 289 289 289 288 288 288 287 288 288 287 287 287 288 289 289 289 288 285 285 284 281 276 274 276 278 278 278 280 281 282 284 283 283 283 284 285 286 288 289 289 290 290 290 290 290 291 291 291 292 293 293 294 295 295 296 296 296 296 297 296 296 296 296 296 296 296 295 294 294 293 291 289 287 285 283 281 279 278
291 291 290 290 290 290 289 289 289 289 288 288 288 287 287 287 288 289 289 289 289 290 290 290 291 290 287 286 285 282 280 281 281 278 279 282 284 284 285 284 283 283 284 285 286 288 288 289 289 289 290 290 291 292 292 293 293 294 295 296 297 297 298 298 299 299 299 299 299 299 299 299 299 299 298 298 297 296 294 292 289 287 285 284 282 281
291 290 290 290 289 289 289 289 289 289 289 288 288 288 288 287 288 289 289 290 290 290 291 291 291 291 289 287 286 284 284 283 281 280 281 283 284 285 285 284 284 285 285 286 287 288 289 289 290 290 291 291 292 292 293 294 294 295 296 297 297 298 298 299 300 300 300 301 301 301 301 301 301 301 300 299 299 297 295 293 291 289 287 286 285 284
291 290 290 290 289 289 289 289 289 289 289 289 289 289 289 288 288 287 287 289 289 289 291 290 291 291 289 289 287 285 286 284 281 282 282 283 284 285 285 285 287 288 289 289 289 290 290 291 291 291 291 291 291 292 293 294 295 296 297 297 298 298 299 300 300 301 301 302 302 302 302 302 302 302 301 301 300 298 297 294 292 290 289 288 287 286
292 291 290 290 290 290 290 290 290 290 289 289 289 289 289 289 289 287 287 286 286 287 288 289 290 290 289 287 285 284 285 283 281 282 283 283 284 285 285 286 287 289 290 290 291 291 291 291 291 292 292 292 292 293 293 295 296 296 297 297 298 298 299 300 301 301 301 302 302 303 303 303 302 302 302 301 300 299 297 295 293 291 290 289 289 288
294 293 293 292 292 291 292 292 291 291 290 289 289 289 289 289 290 289 288 287 286 286 286 287 289 290 290 288 285 283 283 281 281 281 281 282 283 284 285 285 286 287 288 289 290 291 291 292 292 293 293 293 293 294 295 296 296 297 297 297 298 299 299 300 300 301 301 301 302 303 303 303 303 302 302 302 301 300 298 296 293 292 291 290 290 289
296 296 294 294 293 292 292 292 292 291 290 289 289 288 288 288 289 288 288 287 286 286 286 286 287 289 290 288 286 285 284 282 282 282 281 282 282 283 283 284 285 286 287 288 289 290 291 291 292 292 292 293 293 294 295 296 296 297 297 298 298 299 299 300 300 300 301 301 302 303 303 303 303 303 302 302 301 300 298 296 294 293 292 291 291 291
298 297 296 295 294 293 292 291 291 291 290 289 288 287 287 287 287 287 287 286 285 286 286 286 287 289 288 286 285 284 284 284 285 284 284 285 285 284 284 284 285 286 287 288 289 290 291 291 291 292 292 293 294 295 295 296 296 297 297 298 298 299 299 299 300 300 301 302 302 303 303 303 303 303 303 302 301 300 298 296 295 294 294 293 292 292
300 300 299 298 297 295 295 294 293 293 292 291 290 289 288 288 287 287 287 287 286 287 288 287 288 289 286 284 283 283 284 286 287 287 287 288 288 287 285 285 286 287 287 288 289 290 291 291 292 292 292 293 294 295 296 296 297 297 297 298 298 299 299 300 300 301 301 302 303 303 303 303 303 303 303 302 301 300 298 297 296 296 295 294 294 293
302 301 301 300 300 299 298 297 297 297 296 296 294 293 293 292 290 290 289 289 288 288 289 287 288 288 283 280 280 283 286 289 289 289 290 290 289 288 287 287 288 288 288 289 290 290 291 292 292 293 293 294 295 295 296 296 297 297 297 298 298 299 299 300 300 301 302 302 303 303 303 304 304 304 303 302 301 299 299 298 297 297 296 295 294 294
303 303 302 302 301 300 300 299 299 298 298 298 297 296 296 295 294 294 294 294 293 293 292 289 290 288 280 276 278 285 289 290 290 292 293 292 290 289 289 290 290 290 290 291 291 292 292 293 293 294 294 295 296 296 296 297 297 297 298 298 299 299 300 300 301 301 302 303 303 304 304 304 304 304 303 302 301 300 299 299 298 297 297 296 295 294
303 302 302 301 301 300 300 300 300 300 299 299 298 298 297 296 296 296 297 297 297 298 297 294 293 287 281 280 284 288 289 290 292 295 296 294 291 290 291 292 292 292 292 293 293 293 294 294 295 295 295 296 296 296 297 297 298 298 299 299 299 300 300 301 301 302 303 303 304 304 305 305 304 303 302 301 301 300 300 299 298 298 297 296 295 295
305 304 303 302 301 300 299 299 299 299 299 299 299 298 298 297 297 298 298 298 298 299 298 297 295 286 283 286 289 288 288 291 295 297 296 294 292 292 293 293 293 294 294 294 294 295 295 296 296 296 296 296 297 297 298 298 298 299 299 299 300 300 301 301 302 303 303 304 304 305 305 304 304 303 302 302 301 301 300 300 299 298 297 296 296 295
312 310 309 307 306 305 303 303 302 301 301 301 300 300 300 298 297 298 298 298 298 298 297 297 294 286 285 288 287 286 288 293 296 296 294 293 293 294 294 294 294 294 295 295 295 296 296 296 296 297 297 297 298 298 299 299 299 300 300 300 301 301 302 302 303 303 304 305 305 305 305 304 303 303 302 302 301 301 300 300 299 298 298 297 297 297
323 320 319 317 316 312 310 309 308 306 305 304 302 301 301 300 299 299 298 297 298 298 299 298 294 290 290 288 285 286 290 294 295 294 293 293 294 294 294 295 295 295 295 296 296 296 297 297 297 298 298 298 299 299 300 300 301 301 301 301 302 302 303 303 304 304 305 305 305 305 305 304 303 303 302 302 302 301 301 300 299 299 299 298 298 298
329 327 326 326 326 322 318 316 314 313 311 308 306 304 303 302 302 302 302 300 299 299 301 300 295 295 297 291 288 289 293 295 294 293 293 294 295 295 295 295 295 295 296 296 297 297 298 298 298 299 299 300 300 301 301 301 302 302 302 302 303 303 303 304 304 305 305 305 305 305 304 304 303 303 303 302 302 302 301 301 300 300 300 299 299 298
327 326 325 326 328 326 324 322 321 321 320 316 312 309 306 305 306 306 305 304 302 301 303 300 296 298 299 293 292 295 296 295 295 295 295 295 295 296 296 295 296 297 297 297 298 298 298 298 299 300 300 301 301 302 302 303 303 303 303 303 303 304 304 305 305 306 306 306 305 305 304 304 304 304 303 303 303 302 302 301 301 301 300 300 299 298
322 323 321 321 325 324 323 322 320 322 323 320 317 313 309 308 309 308 308 306 304 304 306 302 299 301 300 295 295 298 298 297 297 296 296 296 297 297 297 297 297 297 298 299 299 299 299 299 300 301 301 302 302 302 303 303 303 303 303 303 304 305 305 306 306 306 306 306 305 305 305 304 304 304 304 304 303 302 302 302 302 301 301 300 300 299
319 319 317 317 321 321 320 318 317 319 320 319 318 314 309 309 310 310 309 308 306 307 308 304 302 305 303 298 299 301 300 299 299 298 297 297 297 297 297 298 298 298 299 299 299 299 299 300 300 301 301 302 302 303 303 303 303 303 304 304 304 305 306 306 307 306 306 306 306 305 305 305 305 305 304 304 303 303 303 303 302 302 302 301 300 299
316 316 315 314 317 319 317 315 315 316 316 318 318 312 308 309 310 309 309 308 307 308 308 305 304 306 303 300 302 302 301 301 301 300 299 298 298 298 298 298 298 298 299 299 299 299 299 300 300 300 301 302 302 303 303 303 304 304 304 304 305 305 306 307 307 307 306 306 306 306 306 306 305 305 304 304 304 303 303 303 303 302 302 301 300 299
313 313 311 310 313 316 314 311 312 312 313 317 315 308 306 308 309 308 308 308 307 306 306 304 304 304 302 301 301 301 300 300 301 300 300 299 300 299 298 297 298 298 298 298 298 299 299 299 300 300 301 301 302 303 303 303 304 304 304 304 305 306 307 307 307 307 307 307 306 306 306 306 305 305 304 304 304 304 304 304 303 303 302 301 300 299
310 310 308 307 310 312 310 308 308 308 311 314 309 304 305 306 306 306 307 307 305 305 304 303 303 302 301 299 299 300 299 299 300 299 299 299 299 298 297 297 298 298 298 298 298 299 299 299 300 300 301 302 302 303 303 303 304 304 304 305 306 307 307 307 307 307 307 307 306 306 306 306 305 305 305 305 305 305 305 304 304 303 302 301 300 300
309 308 307 307 308 310 309 307 306 307 310 310 305 302 302 302 301 301 303 302 301 301 300 300 299 299 298 298 297 298 298 298 297 297 296 296 296 295 296 297 297 297 297 297 298 298 298 299 300 301 301 302 302 303 303 303 303 304 304 305 306 307 307 307 307 307 307 307 306 306 306 306 306 306 306 306 306 306 305 305 304 304 302 301 301 301
308 307 307 307 308 310 309 307 306 308 310 308 304 302 301 299 298 299 299 299 297 296 296 296 296 297 296 296 296 296 296 296 295 295 295 294 293 293 294 295 295 295 296 297 297 297 298 299 300 300 301 302 302 303 303 303 303 304 305 306 306 307 307 307 307 307 307 307 306 306 306 306 306 306 306 306 306 306 306 305 304 303 303 302 302 302
308 307 307 308 309 310 310 308 307 308 309 306 303 301 299 298 298 298 298 298 296 295 294 295 296 296 295 295 295 295 295 294 294 295 294 293 293 293 294 294 294 295 295 296 296 297 298 299 299 300 301 302 302 303 303 303 303 304 305 306 306 307 307 307 307 307 307 307 307 307 307 307 307 307 307 307 306 306 306 305 304 304 303 303 302 302
308 307 308 308 308 309 309 308 307 308 307 306 304 302 300 299 299 298 299 299 297 295 295 296 295 294 294 294 294 294 294 293 294 294 294 293 294 294 294 294 295 295 296 296 297 297 298 299 299 300 301 302 302 302 302 303 303 304 305 306 306 307 307 307 307 307 307 307 307 307 307 307 307 307 307 307 307 306 306 305 305 304 304 303 303 303
307 307 307 307 308 309 309 307 306 307 306 305 304 302 301 301 301 300 298 297 295 294 295 294 294 293 294 294 293 293 293 293 294 294 293 294 294 295 295 296 296 296 296 296 297 298 298 299 299 300 301 302 302 302 302 303 303 304 305 306 306 306 306 306 307 307 307 307 307 307 307 307 307 307 307 307 307 306 306 306 305 305 304 304 303 303
306 306 306 306 307 309 308 306 306 306 306 305 303 301 300 301 300 299 297 296 294 294 294 294 294 294 293 293 292 293 293 293 294 293 293 293 294 294 295 296 296 296 296 297 297 298 298 299 300 300 301 301 301 302 302 303 304 305 305 306 306 306 306 307 307 307 307 307 307 307 307 307 307 307 307 307 307 307 306 306 306 305 305 304 304 303
306 306 306 306 308 308 307 307 307 307 306 305 303 302 302 302 300 299 297 297 297 297 296 296 295 295 294 294 294 294 294 294 294 293 293 293 293 293 294 295 295 296 296 297 297 297 298 299 300 300 301 301 301 302 303 303 304 305 305 305 306 306 306 307 307 307 307 307 307 307 307 308 308 308 308 307 307 307 307 306 306 306 305 304 304 303
305 305 306 307 308 307 306 306 306 306 306 304 303 303 303 302 301 299 299 300 300 299 298 298 297 297 296 296 296 296 296 296 295 294 293 293 293 293 293 294 294 295 295 296 296 297 298 299 300 300 301 301 302 302 303 303 304 304 305 305 305 306 307 307 307 307 307 307 307 308 308 308 308 308 308 308 308 307 307 307 306 306 305 304 304 303
305 306 306 307 307 306 305 305 305 305 304 304 304 304 303 302 301 300 300 301 300 299 298 298 297 297 297 297 296 296 296 295 295 294 294 293 294 294 294 294 295 295 296 296 297 298 299 300 300 300 301 301 302 302 303 303 304 304 305 305 306 306 306 306 306 307 307 307 308 308 308 308 308 308 308 308 308 308 307 307 307 306 305 304 304 304
306 306 306 306 306 305 304 305 305 304 304 303 304 304 302 302 301 301 300 301 300 299 298 298 297 297 297 297 297 296 296 296 295 295 295 295 296 295 296 296 296 296 296 297 298 299 299 300 300 300 301 301 302 302 303 303 304 304 304 305 306 306 306 306 306 307 307 307 308 308 308 308 308 308 308 308 308 307 307 307 307 306 305 304 304 305
306 306 306 306 305 304 305 305 305 304 304 304 304 303 302 302 301 301 300 300 300 299 299 298 298 298 297 297 297 297 297 297 297 297 297 297 297 297 297 297 297 297 297 298 298 299 300 300 300 300 301 301 302 302 302 303 303 304 304 305 305 305 305 306 306 306 307 307 308 308 308 308 308 308 308 308 308 307 307 307 306 306 305 305 305 305
306 306 306 306 305 305 305 305 304 303 304 304 304 303 302 302 301 301 301 301 300 299 299 299 299 299 299 299 298 298 299 298 298 298 298 298 297 297 297 297 297 298 298 299 299 300 300 300 300 301 301 301 301 302 302 303 303 303 304 305 305 305 305 306 306 307 307 308 308 308 308 308 308 308 308 308 308 308 307 307 306 305 305 305 306 306
306 306 305 305 304 305 305 304 303 303 304 303 303 302 302 301 301 301 301 301 301 301 301 301 301 301 300 300 300 300 299 298 298 298 298 298 298 298 298 298 298 299 299 299 300 300 300 300 300 301 301 301 301 302 302 303 303 303 304 305 304 304 305 306 306 307 307 308 308 308 308 308 308 308 308 308 308 308 307 306 306 305 305 306 306 306
305 304 304 303 303 303 303 302 302 302 303 302 302 301 301 301 302 302 302 302 302 303 302 302 302 301 301 300 299 299 299 299 299 299 298 298 299 299 299 299 299 299 299 300 300 300 300 300 300 300 301 301 301 302 302 302 303 303 304 304 304 305 305 306 306 307 307 307 307 307 308 308 308 308 308 308 308 308 307 306 306 306 306 306 307 307
304 303 303 303 303 302 302 302 301 302 302 302 301 301 301 301 302 302 302 302 301 301 301 301 301 301 300 300 300 300 300 300 300 299 299 299 299 299 299 299 299 299 299 300 300 300 300 300 300 300 301 301 302 302 302 302 302 303 304 304 304 305 305 306 306 307 307 307 307 307 308 308 308 308 308 308 308 307 307 306 306 306 306 307 307 307
303 303 302 302 302 302 301 301 301 302 301 301 300 300 300 300 299 299 299 300 300 300 300 301 301 301 301 301 301 301 301 301 300 300 299 299 299 299 299 299 299 299 299 300 300 300 300 300 300 300 301 301 301 302 301 301 302 303 303 304 304 304 305 306 306 307 307 307 307 308 308 308 308 308 308 308 308 307 307 306 307 307 307 307 308 308
304 303 302 302 301 301 300 301 301 301 300 300 299 299 299 299 300 300 299 299 300 300 301 301 301 301 301 301 301 301 301 301 300 300 300 300 300 299 299 299 299 299 300 300 300 300 300 300 300 300 300 300 301 301 301 301 302 303 303 304 304 304 305 306 306 306 306 307 307 308 308 309 308 308 308 308 308 307 307 307 307 307 307 307 308 308
303 303 302 302 302 301 301 301 301 301 300 299 298 298 298 299 300 300 300 300 300 300 300 300 300 301 301 301 301 301 301 301 301 300 300 300 300 299 299 299 299 299 300 300 299 299 299 299 299 300 300 300 300 300 300 301 302 303 303 304 304 304 305 306 306 306 306 307 308 308 309 309 308 308 308 308 308 308 308 308 307 307 307 308 308 308
303 303 302 302 302 302 302 302 302 302 302 301 301 300 300 300 301 302 302 302 302 302 302 302 302 302 301 301 301 301 300 300 300 300 299 299 299 299 299 299 299 299 299 299 299 298 298 299 299 299 299 299 300 300 300 301 302 303 303 303 303 304 305 306 306 306 306 307 308 308 309 309 308 308 308 308 308 308 308 308 308 308 308 308 308 308
Height
10568 10566 10565 10563 10562 10560 10559 10557 10556 10554 10553 10551 10550 10548 10546 10545 10543 10541 10540 10538 10536 10535 10533 10532 10530 10526 10525 10527 10526 10523 10523 10523 10521 10518 10515 10513 10512 10510 10509 10508 10506 10505 10503 10501 10499 10497 10496 10494 10493 10492 10491 10490 10489 10487 10485 10483 10481 10479 10478 10476 10474 10471 10469 10467 10465 10463 10461 10459 10457 10454 10452 10450 10447 10445 10442 10439 10437 10435 10434 10432 10431 10428 10426 10425 10423 10421
10563 10561 10560 10559 10557 10556 10554 10552 10550 10549 10547 10546 10544 10542 10540 10539 10538 10535 10534 10532 10531 10529 10527 10526 10524 10519 10519 10521 10520 10518 10517 10516 10514 10509 10507 10506 10506 10504 10502 10501 10499 10497 10494 10492 10490 10489 10487 10486 10484 10483 10482 10481 10479 10477 10475 10473 10471 10469 10468 10465 10462 10460 10458 10456 10454 10452 10449 10447 10444 10442 10439 10437 10434 10430 10428 10425 10422 10420 10419 10417 10414 10411 10409 10407 10405 10404
10558 10557 10555 10554 10552 10551 10549 10547 10545 10543 10542 10540 10538 10537 10535 10533 10532 10530 10528 10526 10525 10523 10521 10520 10517 10512 10513 10516 10514 10511 10510 10508 10505 10502 10500 10500 10499 10497 10494 10492 10490 10488 10485 10483 10482 10480 10478 10477 10475 10474 10473 10471 10469 10467 10465 10463 10461 10459 10457 10454 10451 10449 10447 10445 10442 10440 10437 10435 10432 10429 10426 10423 10420 10417 10414 10412 10408 10405 10404 10401 10398 10395 10392 10390 10389 10387
10554 10553 10551 10549 10548 10546 10544 10542 10540 10538 10536 10535 10533 10531 10529 10527 10526 10524 10521 10520 10518 10517 10515 10514 10510 10506 10508 10510 10508 10505 10502 10500 10498 10495 10494 10493 10491 10489 10486 10484 10482 10480 10477 10475 10474 10473 10471 10469 10468 10466 10465 10463 10461 10459 10456 10454 10452 10449 10447 10444 10442 10439 10437 10434 10431 10428 10426 10423 10420 10417 10413 10410 10407 10404 10400 10397 10394 10390 10387 10384 10381 10379 10375 10372 10371 10370
10550 10549 10547 10545 10543 10541 10539 10537 10536 10533 10531 10530 10528 10526 10524 10521 10520 10518 10515 10513 10512 10510 10509 10508 10504 10501 10501 10503 10502 10499 10495 10491 10490 10489 10488 10485 10484 10482 10479 10477 10475 10472 10470 10468 10468 10467 10465 10463 10461 10459 10458 10455 10453 10451 10449 10446 10443 10440 10438 10435 10433 10431 10428 10424 10421 10418 10415 10412 10409 10405 10402 10398 10394 10391 10387 10384 10380 10375 10371 10368 10365 10362 10358 10354 10352 10350
10546 10545 10543 10541 10539 10537 10535 10533 10531 10529 10527 10525 10522 10520 10518 10516 10514 10512 10510 10508 10506 10504 10503 10502 10500 10495 10495 10497 10497 10494 10490 10486 10484 10483 10481 10479 10477 10475 10473 10470 10468 10465 10463 10462 10461 10459 10457 10456 10454 10452 10451 10448 10446 10444 10441 10438 10436 10433 10430 10428 10425 10423 10419 10416 10413 10409 10406 10403 10399 10396 10392 10388 10384 10380 10375 10371 10367 10362 10357 10353 10349 10346 10342 10338 10334 10331
10542 10540 10538 10536 10534 10532 10530 10528 10526 10524 10522 10520 10518 10516 10514 10512 10509 10507 10505 10503 10501 10498 10496 10497 10496 10492 10488 10490 10493 10491 10486 10482 10480 10477 10475 10473 10470 10468 10465 10463 10461 10459 10457 10456 10455 10452 10450 10448 10447 10445 10444 10441 10439 10436 10434 10431 10429 10426 10423 10420 10417 10414 10411 10408 10404 10400 10397 10393 10390 10386 10382 10378 10374 10369 10364 10359 10355 10349 10344 10339 10335 10331 10327 10323 10319 10315
10538 10536 10534 10532 10530 10528 10526 10524 10521 10519 10517 10515 10513 10511 10509 10507 10505 10502 10500 10498 10496 10494 10492 10491 10492 10490 10484 10483 10488 10488 10483 10479 10476 10473 10470 10467 10465 10461 10458 10456 10454 10452 10450 10448 10447 10445 10443 10441 10440 10438 10436 10434 10431 10429 10426 10424 10421 10418 10415 10412 10408 10405 10402 10398 10394 10391 10387 10383 10379 10375 10371 10367 10362 10358 10353 10348 10343 10337 10332 10326 10321 10317 10313 10309 10305 10301
10534 10531 10529 10527 10525 10523 10521 10519 10517 10514 10512 10510 10508 10506 10504 10502 10500 10498 10496 10494 10492 10489 10487 10485 10486 10486 10480 10478 10483 10482 10478 10476 10472 10469 10466 10462 10459 10456 10452 10451 10449 10447 10444 10441 10439 10437 10437 10436 10433 10431 10428 10426 10423 10421 10418 10415 10412 10409 10406 10403 10399 10396 10392 10388 10384 10380 10376 10372 10368 10364 10360 10355 10351 10346 10341 10335 10330 10324 10319 10313 10308 10303 10299 10295 10291 10287
10529 10527 10525 10523 10521 10519 10516 10514 10512 10509 10507 10505 10503 10501 10499 10497 10495 10493 10490 10489 10486 10483 10481 10479 10479 10480 10475 10471 10476 10476 10472 10471 10469 10465 10461 10456 10453 10451 10447 10445 10442 10440 10437 10434 10432 10431 10430 10429 10427 10424 10420 10417 10414 10412 10409 10406 10403 10400 10397 10393 10390 10386 10382 10378 10374 10370 10366 10361 10357 10353 10348 10344 10339 10334 10328 10323 10317 10312 10306 10300 10294 10289 10285 10280 10277 10273
10525 10523 10521 10518 10516 10514 10512 10510 10507 10505 10503 10500 10499 10497 10494 10492 10490 10487 10485 10483 10481 10477 10475 10472 10471 10472 10469 10465 10467 10469 10467 10465 10463 10459 10455 10450 10447 10445 10442 10438 10434 10432 10429 10427 10426 10425 10423 10421 10419 10415 10412 10408 10405 10402 10399 10396 10393 10390 10386 10383 10379 10375 10371 10367 10363 10359 10355 10350 10346 10341 10336 10331 10326 10320 10315 10310 10304 10299 10293 10287 10281 10276 10271 10266 10263 10259
10520 10518 10516 10514 10512 10509 10507 10505 10502 10500 10497 10495 10493 10491 10489 10487 10485 10482 10479 10477 10475 10472 10469 10467 10464 10464 10462 10459 10459 10460 10461 10459 10456 10453 10450 10445 10442 10439 10436 10431 10426 10424 10422 10421 10420 10417 10415 10412 10409 10406 10403 10399 10396 10393 10390 10386 10383 10380 10376 10372 10368 10364 10360 10356 10352 10347 10343 10339 10334 10329 10324 10318 10313 10307 10302 10296 10291 10285 10280 10274 10268 10262 10257 10253 10249 10244
10516 10514 10511 10509 10506 10504 10502 10499 10497 10494 10491 10489 10487 10485 10483 10482 10480 10477 10474 10472 10470 10467 10464 10461 10459 10456 10453 10451 10450 10451 10454 10452 10448 10445 10444 10440 10436 10433 10429 10423 10419 10417 10415 10414 10411 10409 10406 10403 10400 10397 10393 10390 10387 10383 10380 10376 10373 10369 10366 10362 10357 10353 10349 10345 10340 10336 10331 10326 10322 10317 10311 10306 10300 10294 10289 10283 10278 10272 10266 10260 10255 10249 10244 10239 10235 10230
10512 10509 10506 10504 10501 10498 10497 10494 10492 10489 10486 10483 10480 10479 10476 10475 10475 10473 10469 10468 10465 10462 10460 10455 10453 10450 10445 10441 10439 10441 10445 10444 10440 10437 10437 10434 10430 10426 10421 10415 10412 10409 10406 10404 10402 10400 10397 10394 10391 10387 10384 10381 10377 10374 10370 10366 10363 10359 10355 10351 10347 10342 10338 10333 10329 10323 10319 10314 10309 10304 10299 10293 10288 10282 10276 10271 10265 10259 10252 10247 10241 10236 10230 10226 10221 10217
10507 10505 10502 10499 10496 10493 10491 10488 10487 10485 10481 10477 10474 10472 10470 10468 10468 10468 10465 10463 10460 10459 10457 10451 10448 10444 10438 10433 10429 10431 10436 10434 10432 10431 10429 10427 10425 10420 10414 10409 10405 10401 10398 10395 10393 10390 10387 10384 10381 10377 10374 10371 10367 10364 10360 10356 10353 10348 10344 10340 10336 10331 10326 10321 10317 10312 10307 10302 10298 10292 10286 10281 10275 10270 10264 10258 10252 10245 10239 10233 10227 10222 10217 10212 10208 10203
10502 10500 10498 10495 10491 10488 10486 10482 10480 10479 10476 10472 10468 10466 10464 10461 10460 10460 10459 10456 10454 10456 10454 10449 10445 10438 10429 10420 10413 10420 10427 10425 10424 10425 10421 10420 10418 10413 10408 10402 10399 10395 10391 10388 10384 10382 10378 10375 10371 10367 10364 10360 10356 10353 10349 10346 10342 10338 10333 10329 10324 10320 10315 10310 10305 10301 10296 10291 10286 10281 10274 10268 10262 10257 10251 10245 10238 10232 10225 10220 10214 10209 10204 10199 10194 10189
10495 10494 10492 10490 10486 10483 10480 10477 10473 10472 10470 10467 10463 10459 10457 10455 10452 10451 10452 10450 10446 10448 10450 10447 10443 10437 10425 10407 10395 10403 10414 10415 10416 10416 10413 10412 10411 10406 10401 10395 10392 10389 10384 10381 10377 10373 10370 10366 10362 10359 10354 10351 10347 10343 10339 10335 10331 10327 10322 10318 10313 10308 10304 10299 10294 10289 10285 10279 10274 10268 10262 10256 10250 10244 10238 10231 10225 10218 10212 10206 10201 10196 10191 10186 10180 10176
10489 10487 10485 10483 10480 10476 10474 10472 10467 10465 10463 10460 10456 10452 10449 10449 10445 10442 10443 10442 10438 10440 10444 10442 10440 10436 10422 10399 10382 10387 10398 10403 10406 10406 10403 10403 10401 10397 10392 10387 10385 10381 10377 10373 10369 10365 10362 10358 10354 10350 10345 10341 10338 10333 10329 10325 10321 10316 10312 10307 10302 10297 10292 10287 10282 10277 10273 10267 10261 10255 10250 10243 10237 10230 10224 10218 10211 10205 10199 10193 10188 10182 10177 10172 10167 10162
10484 10481 10477 10475 10473 10469 10466 10465 10461 10457 10454 10452 10449 10444 10441 10441 10439 10436 10435 10432 10430 10432 10437 10438 10437 10433 10418 10391 10371 10373 10385 10394 10396 10395 10394 10393 10391 10386 10381 10378 10376 10373 10368 10365 10361 10357 10353 10349 10345 10340 10336 10332 10328 10324 10319 10315 10311 10306 10301 10296 10291 10286 10281 10275 10270 10265 10260 10255 10248 10242 10237 10230 10223 10217 10210 10204 10197 10191 10185 10179 10174 10168 10163 10158 10153 10148
10479 10477 10473 10469 10466 10462 10459 10458 10455 10451 10446 10443 10441 10436 10433 10431 10429 10429 10428 10425 10422 10424 10429 10432 10435 10431 10410 10382 10363 10364 10377 10384 10385 10386 10387 10385 10381 10375 10370 10368 10366 10363 10360 10356 10352 10348 10344 10340 10335 10331 10326 10322 10318 10314 10309 10305 10300 10295 10290 10285 10280 10275 10269 10263 10258 10253 10248 10243 10236 10229 10223 10216 10209 10202 10196 10189 10183 10177 10171 10165 10160 10154 10149 10143 10138 10133
10474 10472 10469 10464 10460 10456 10452 10450 10449 10445 10441 10436 10432 10428 10425 10422 10420 10421 10421 10417 10413 10415 10419 10423 10431 10424 10395 10370 10365 10369 10372 10372 10372 10377 10378 10374 10370 10365 10360 10358 10355 10352 10349 10346 10342 10338 10334 10330 10325 10321 10316 10312 10308 10303 10299 10294 10289 10284 10279 10274 10268 10262 10257 10251 10245 10240 10235 10230 10223 10216 10209 10202 10195 10188 10181 10175 10169 10163 10157 10152 10146 10140 10135 10129 10124 10118
10470 10467 10464 10460 10456 10451 10446 10444 10441 10438 10435 10430 10425 10421 10418 10413 10410 10411 10413 10410 10406 10405 10406 10412 10423 10412 10380 10366 10371 10370 10365 10363 10364 10367 10367 10363 10358 10354 10351 10347 10343 10341 10338 10334 10331 10328 10324 10320 10315 10311 10306 10302 10298 10293 10288 10283 10278 10273 10267 10261 10256 10250 10245 10238 10233 10227 10222 10216 10209 10202 10195 10188 10181 10174 10168 10161 10156 10150 10144 10138 10133 10127 10121 10116 10110 10104
10466 10462 10459 10455 10451 10446 10441 10438 10436 10432 10429 10424 10418 10413 10410 10407 10403 10401 10403 10403 10401 10398 10394 10399 10410 10400 10376 10368 10369 10362 10357 10358 10358 10358 10356 10351 10347 10344 10341 10338 10333 10330 10327 10323 10320 10317 10313 10309 10304 10300 10296 10291 10287 10282 10276 10272 10266 10261 10255 10249 10244 10238 10232 10226 10220 10214 10208 10202 10195 10188 10182 10175 10168 10161 10155 10148 10142 10136 10131 10125 10119 10114 10108 10102 10096 10090
10461 10458 10455 10451 10447 10441 10435 10431 10429 10426 10422 10417 10411 10405 10401 10399 10397 10395 10393 10394 10394 10391 10385 10387 10394 10390 10377 10368 10361 10352 10352 10354 10353 10351 10346 10341 10339 10335 10331 10328 10323 10320 10317 10312 10309 10306 10302 10298 10293 10289 10285 10280 10275 10270 10265 10259 10254 10248 10242 10237 10231 10226 10220 10213 10206 10201 10195 10188 10181 10174 10168 10162 10155 10148 10142 10136 10130 10124 10117 10112 10106 10100 10094 10088 10081 10075
10456 10452 10449 10447 10444 10438 10432 10427 10423 10421 10417 10411 10405 10399 10393 10390 10389 10388 10385 10385 10386 10385 10379 10374 10376 10380 10375 10362 10351 10347 10349 10351 10347 10342 10336 10333 10330 10326 10322 10318 10313 10310 10306 10302 10299 10296 10291 10287 10282 10278 10273 10268 10263 10258 10253 10247 10241 10236 10229 10224 10218 10212 10207 10200 10192 10187 10181 10174 10167 10160 10154 10148 10141 10135 10129 10123 10117 10111 10104 10098 10092 10085 10079 10073 10066 10060
10452 10447 10443 10442 10439 10433 10429 10424 10420 10416 10412 10406 10400 10393 10387 10382 10380 10378 10376 10374 10376 10379 10377 10365 10359 10370 10369 10349 10339 10343 10345 10344 10339 10333 10329 10325 10321 10317 10313 10308 10303 10300 10296 10292 10288 10285 10280 10275 10271 10266 10261 10256 10251 10246 10240 10235 10229 10222 10216 10210 10204 10198 10193 10186 10179 10173 10167 10160 10153 10146 10140 10134 10128 10122 10116 10109 10103 10097 10091 10084 10078 10071 10065 10058 10051 10045
10448 10444 10439 10436 10434 10428 10423 10419 10415 10411 10406 10400 10395 10387 10381 10377 10374 10371 10368 10364 10362 10368 10374 10360 10347 10359 10363 10340 10328 10334 10336 10334 10329 10323 10320 10316 10311 10307 10302 10297 10293 10289 10284 10281 10276 10272 10268 10263 10259 10254 10248 10244 10239 10233 10227 10222 10216 10209 10203 10197 10191 10184 10178 10172 10166 10159 10153 10147 10140 10133 10126 10120 10114 10108 10102 10096 10089 10083 10077 10070 10064 10057 10050 10044 10037 10030
10445 10441 10435 10432 10430 10424 10419 10414 10410 10407 10403 10396 10389 10381 10374 10371 10369 10365 10362 10358 10351 10354 10364 10356 10342 10347 10350 10334 10325 10325 10322 10322 10320 10314 10310 10306 10301 10296 10291 10286 10282 10278 10273 10270 10265 10260 10255 10251 10246 10241 10236 10231 10225 10220 10214 10208 10203 10196 10189 10183 10177 10170 10164 10157 10151 10145 10138 10132 10126 10119 10113 10107 10100 10094 10087 10082 10075 10069 10063 10056 10050 10043 10036 10029 10022 10015
10439 10437 10431 10427 10426 10421 10414 10410 10405 10402 10400 10394 10386 10375 10366 10364 10364 10360 10356 10351 10343 10342 10348 10345 10339 10338 10332 10323 10322 10319 10310 10308 10308 10302 10298 10295 10291 10286 10281 10275 10270 10266 10263 10258 10252 10247 10243 10238 10234 10228 10223 10218 10212 10207 10202 10195 10189 10183 10176 10169 10163 10157 10151 10144 10137 10131 10124 10118 10112 10106 10099 10093 10087 10081 10074 10068 10062 10055 10049 10042 10035 10028 10021 10015 10008 10001
10430 10430 10425 10422 10423 10419 10411 10405 10402 10398 10395 10392 10383 10369 10359 10356 10356 10353 10350 10345 10336 10334 10335 10331 10331 10333 10322 10310 10312 10311 10301 10295 10294 10289 10285 10281 10278 10274 10270 10264 10259 10255 10252 10246 10240 10236 10231 10226 10221 10216 10211 10205 10200 10195 10188 10182 10176 10169 10162 10156 10150 10143 10138 10131 10123 10117 10111 10104 10098 10092 10086 10080 10074 10068 10061 10055 10049 10042 10035 10028 10021 10014 10007 10000 9993 9987
10420 10421 10418 10414 10417 10417 10408 10400 10398 10393 10391 10390 10380 10365 10354 10351 10349 10345 10343 10337 10328 10325 10324 10318 10317 10323 10316 10303 10302 10302 10294 10287 10283 10276 10270 10266 10263 10259 10255 10251 10248 10244 10239 10234 10229 10224 10219 10213 10209 10204 10198 10192 10187 10181 10175 10169 10163 10156 10149 10144 10137 10130 10124 10117 10110 10104 10098 10091 10085 10079 10073 10067 10061 10055 10049 10042 10035 10028 10021 10014 10007 10000 9993 9986 9980 9974
10412 10410 10408 10404 10407 10411 10404 10396 10393 10389 10387 10385 10374 10360 10351 10345 10342 10339 10336 10331 10321 10314 10313 10309 10305 10307 10305 10298 10294 10292 10285 10280 10276 10268 10260 10254 10250 10246 10241 10239 10236 10231 10225 10220 10216 10210 10205 10200 10195 10190 10184 10179 10173 10168 10162 10156 10150 10143 10136 10130 10124 10117 10111 10104 10097 10091 10085 10079 10072 10066 10060 10054 10048 10042 10035 10028 10021 10014 10007 10000 9993 9986 9980 9973 9966 9961
10405 10400 10397 10393 10395 10401 10397 10389 10386 10384 10383 10379 10366 10354 10348 10341 10335 10334 10332 10325 10316 10307 10302 10300 10297 10295 10292 10288 10285 10282 10277 10271 10267 10262 10254 10246 10240 10235 10231 10228 10223 10217 10212 10207 10203 10197 10191 10187 10182 10176 10171 10166 10160 10154 10149 10142 10136 10129 10123 10117 10111 10104 10098 10092 10085 10079 10073 10066 10060 10054 10047 10041 10035 10028 10021 10014 10007 10000 9993 9987 9980 9973 9967 9960 9953 9948
10397 10390 10387 10383 10382 10387 10387 10380 10377 10377 10377 10371 10358 10346 10339 10333 10328 10328 10327 10320 10310 10301 10295 10290 10288 10284 10279 10275 10272 10270 10268 10262 10256 10251 10244 10235 10228 10224 10222 10218 10211 10205 10200 10196 10190 10184 10179 10174 10169 10164 10159 10153 10148 10142 10135 10129 10122 10116 10110 10104 10098 10091 10085 10079 10073 10066 10060 10054 10047 10041 10035 10028 10021 10014 10008 10001 9994 9987 9980 9974 9967 9961 9954 9947 9941 9935
10388 10381 10376 10373 10371 10373 10374 10368 10365 10368 10367 10360 10349 10338 10330 10325 10320 10318 10320 10313 10299 10290 10285 10282 10279 10273 10267 10263 10259 10256 10255 10251 10247 10241 10231 10221 10216 10212 10209 10207 10201 10194 10189 10184 10178 10173 10168 10162 10157 10152 10147 10141 10135 10129 10122 10116 10109 10103 10097 10091 10085 10079 10073 10066 10060 10054 10047 10041 10034 10028 10021 10015 10008 10001 9995 9988 9981 9974 9968 9961 9955 9948 9942 9935 9928 9923
10378 10372 10367 10363 10360 10360 10361 10356 10353 10355 10355 10347 10335 10324 10316 10314 10310 10306 10309 10305 10289 10276 10273 10271 10268 10262 10256 10252 10248 10243 10241 10239 10238 10231 10219 10209 10203 10197 10194 10193 10189 10182 10176 10171 10166 10160 10155 10150 10144 10139 10134 10128 10122 10115 10108 10102 10096 10090 10084 10078 10072 10066 10060 10054 10048 10041 10034 10028 10021 10015 10008 10002 9995 9988 9982 9975 9968 9962 9955 9949 9943 9936 9929 9923 9917 9911
10369 10364 10358 10353 10352 10349 10346 10343 10341 10341 10341 10335 10324 10312 10305 10303 10298 10291 10293 10294 10282 10269 10265 10261 10256 10252 10247 10241 10237 10232 10228 10228 10228 10221 10208 10200 10194 10185 10179 10177 10173 10169 10163 10157 10153 10147 10142 10136 10131 10126 10121 10114 10108 10101 10095 10088 10082 10077 10072 10065 10059 10054 10047 10041 10035 10028 10021 10015 10008 10002 9995 9988 9982 9975 9969 9962 9956 9949 9943 9937 9930 9924 9918 9911 9905 9900
10362 10357 10349 10343 10343 10340 10331 10328 10327 10326 10324 10318 10309 10301 10296 10293 10286 10277 10274 10276 10271 10262 10256 10249 10243 10240 10235 10229 10225 10221 10216 10215 10217 10210 10199 10193 10187 10177 10170 10165 10159 10153 10149 10143 10139 10134 10128 10123 10118 10112 10107 10100 10094 10088 10081 10075 10069 10064 10059 10053 10047 10040 10034 10029 10022 10015 10008 10002 9996 9989 9982 9975 9969 9962 9956 9949 9943 9936 9930 9924 9918 9912 9906 9900 9894 9889
10353 10348 10341 10334 10332 10327 10317 10312 10312 10310 10306 10299 10291 10287 10283 10278 10271 10262 10256 10257 10257 10250 10242 10235 10230 10225 10220 10214 10210 10207 10202 10200 10200 10196 10187 10181 10176 10169 10162 10155 10147 10141 10136 10130 10125 10120 10114 10109 10104 10098 10092 10086 10080 10074 10067 10061 10056 10051 10045 10040 10033 10027 10021 10015 10009 10002 9996 9990 9983 9976 9969 9962 9956 9949 9943 9936 9930 9924 9918 9912 9906 9900 9895 9889 9883 9878
10343 10336 10331 10326 10321 10314 10304 10298 10297 10294 10288 10280 10275 10272 10267 10260 10253 10245 10240 10242 10241 10234 10226 10219 10214 10209 10204 10199 10195 10192 10188 10183 10180 10179 10174 10167 10162 10157 10150 10143 10136 10130 10124 10118 10112 10106 10101 10096 10090 10084 10078 10072 10066 10060 10054 10048 10043 10037 10032 10026 10020 10014 10008 10002 9996 9990 9983 9977 9970 9963 9956 9949 9943 9937 9930 9924 9918 9912 9906 9900 9895 9889 9883 9878 9872 9867
10330 10325 10320 10315 10309 10301 10291 10285 10282 10279 10272 10265 10260 10256 10249 10243 10237 10229 10225 10226 10224 10219 10213 10206 10199 10194 10190 10185 10180 10176 10173 10168 10161 10159 10156 10151 10146 10141 10135 10128 10122 10117 10111 10104 10099 10094 10088 10083 10077 10071 10065 10058 10053 10047 10040 10035 10030 10024 10019 10013 10007 10001 9995 9989 9984 9978 9971 9964 9958 9951 9944 9937 9931 9925 9919 9912 9906 9900 9894 9889 9884 9878 9872 9867 9861 9856
10315 10311 10306 10301 10295 10287 10278 10271 10265 10260 10256 10251 10247 10240 10231 10224 10220 10213 10210 10210 10205 10200 10196 10191 10186 10180 10174 10169 10165 10160 10156 10152 10144 10139 10136 10133 10128 10123 10118 10112 10107 10101 10096 10090 10085 10080 10075 10069 10064 10057 10051 10046 10040 10034 10028 10022 10017 10012 10006 10001 9995 9989 9982 9977 9972 9965 9959 9952 9946 9939 9932 9926 9919 9913 9907 9901 9895 9889 9883 9878 9873 9867 9861 9856 9850 9844
10300 10295 10289 10283 10276 10269 10264 10258 10248 10240 10238 10236 10231 10224 10214 10207 10202 10194 10191 10193 10189 10181 10175 10172 10171 10165 10157 10152 10150 10145 10139 10134 10128 10121 10118 10115 10110 10105 10101 10096 10091 10086 10081 10075 10070 10066 10061 10056 10050 10044 10039 10033 10027 10022 10016 10010 10005 9999 9994 9989 9983 9976 9970 9965 9960 9953 9947 9940 9934 9927 9920 9914 9908 9902 9896 9890 9884 9877 9872 9867 9862 9856 9850 9845 9840 9834
10285 10279 10272 10265 10257 10251 10248 10242 10232 10223 10221 10218 10211 10204 10197 10191 10185 10177 10171 10171 10171 10165 10157 10153 10152 10148 10139 10133 10131 10129 10125 10119 10112 10106 10102 10098 10094 10089 10085 10080 10075 10070 10065 10060 10056 10052 10047 10042 10036 10031 10026 10020 10015 10009 10003 9997 9992 9986 9981 9977 9970 9963 9957 9953 9948 9941 9935 9928 9922 9915 9909 9902 9896 9891 9885 9879 9873 9867 9861 9856 9851 9845 9840 9834 9830 9824
10270 10264 10257 10248 10241 10237 10232 10224 10215 10211 10209 10202 10193 10184 10178 10173 10169 10162 10154 10149 10147 10144 10139 10134 10132 10129 10123 10116 10111 10110 10108 10104 10098 10093 10087 10082 10078 10074 10068 10063 10059 10054 10049 10045 10041 10037 10033 10028 10022 10017 10012 10007 10002 9996 9990 9984 9978 9973 9969 9964 9957 9950 9945 9940 9935 9929 9923 9916 9910 9904 9898 9892 9886 9880 9874 9869 9863 9857 9851 9845 9840 9835 9829 9825 9820 9815
10256 10250 10243 10234 10227 10224 10219 10209 10200 10197 10195 10188 10179 10170 10162 10156 10152 10146 10139 10133 10128 10124 10120 10115 10111 10109 10107 10102 10096 10093 10092 10088 10083 10078 10072 10066 10062 10058 10053 10047 10043 10039 10034 10030 10026 10022 10018 10013 10008 10003 9998 9993 9988 9983 9977 9970 9964 9960 9956 9950 9944 9938 9932 9928 9923 9917 9911 9905 9899 9893 9887 9881 9875 9869 9863 9858 9853 9847 9841 9835 9829 9824 9818 9814 9810 9806
10243 10235 10228 10220 10212 10207 10203 10196 10189 10185 10180 10172 10163 10156 10149 10142 10137 10131 10123 10117 10114 10111 10106 10102 10097 10092 10089 10085 10079 10075 10074 10072 10066 10060 10057 10052 10047 10043 10038 10033 10028 10024 10020 10015 10012 10007 10003 9999 9993 9989 9984 9980 9975 9970 9964 9957 9951 9948 9944 9937 9931 9925 9920 9916 9911 9906 9900 9894 9888 9882 9877 9871 9864 9858 9853 9848 9843 9837 9831 9825 9819 9814 9808 9803 9800 9796
10229 10220 10212 10206 10200 10192 10185 10178 10175 10174 10170 10160 10148 10141 10137 10132 10129 10126 10117 10107 10101 10096 10092 10088 10082 10075 10071 10068 10062 10057 10056 10056 10050 10043 10040 10038 10033 10027 10023 10018 10014 10009 10005 10001 9997 9993 9988 9983 9979 9975 9970 9966 9962 9957 9951 9944 9939 9936 9931 9925 9919 9913 9909 9904 9900 9894 9888 9883 9877 9872 9866 9861 9854 9848 9843 9837 9832 9827 9821 9815 9810 9804 9798 9793 9790 9786
10212 10205 10197 10192 10188 10181 10173 10165 10160 10159 10159 10152 10138 10126 10118 10112 10111 10112 10108 10098 10089 10082 10077 10073 10069 10061 10054 10050 10046 10042 10040 10039 10035 10028 10024 10021 10017 10011 10007 10003 9999 9995 9991 9987 9983 9978 9974 9969 9965 9961 9957 9953 9949 9944 9938 9932 9928 9924 9919 9913 9907 9901 9897 9893 9889 9883 9877 9872 9866 9861 9856 9850 9844 9838 9833 9827 9822 9817 9810 9805 9799 9795 9789 9784 9779 9776
10193 10187 10180 10174 10169 10165 10159 10152 10145 10141 10141 10140 10132 10120 10108 10098 10093 10095 10093 10087 10081 10075 10068 10063 10062 10057 10048 10039 10031 10025 10023 10024 10020 10013 10009 10005 10001 9996 9992 9988 9984 9980 9977 9973 9969 9965 9960 9956 9953 9949 9945 9941 9937 9932 9926 9921 9916 9912 9908 9901 9895 9889 9886 9882 9877 9871 9866 9861 9856 9850 9845 9839 9833 9828 9823 9817 9812 9806 9800 9794 9789 9784 9780 9776 9770 9766
10178 10171 10164 10158 10153 10149 10144 10138 10132 10124 10120 10119 10117 10111 10102 10091 10085 10083 10080 10074 10068 10063 10057 10051 10048 10047 10043 10035 10024 10012 10006 10007 10005 10000 9995 9991 9987 9982 9979 9975 9971 9967 9964 9959 9956 9952 9948 9944 9940 9936 9932 9929 9924 9919 9914 9909 9905 9901 9896 9890 9883 9878 9874 9871 9866 9860 9855 9851 9846 9840 9835 9829 9823 9818 9813 9807 9802 9796 9791 9785 9779 9773 9769 9766 9762 9757